Location: Brantley
(31.5822°N, 86.2569°W)
Time: 05:08:41
(UTC+00:00)

Vanguard 2 - Pass Details

Date: 17 February 2026
Orbit: 553 x 2896 km, 32.9° (Epoch: 5 March)

Event Time Altitude Azimuth Distance (km) Brightness Sun altitude
Rises 10:10:47 0° 229° (SW) 4,516 - -29.2°
Reaches altitude 10° 10:14:39 10° 222° (SW) 3,139 - -28.3°
Exits shadow 10:19:23 30° 191° (SSW) 1,630 9.0 -27.3°
Maximum altitude 10:21:06 35° 159° (SSE) 1,354 8.8 -27.0°
Drops below altitude 10° 10:25:32 10° 93° (E) 2,129 10.8 -26.0°
Sets 10:27:41 0° 83° (E) 2,900 11.9 -25.6°
